Location: Ettringen
(48.1054°N, 10.6545°E)
Time: 02:28:46
(UTC+00:00)

YAOGAN 1 - Pass Details

Date: 18 November 2025
Orbit: 605 x 607 km, 97.8° (Epoch: 04 December)

Event Time Altitude Azimuth Distance (km) Brightness Sun altitude
Rises 16:42:07 0° 134° (SE) 2,856 5.7 -11.0°
Reaches altitude 10° 16:44:33 10° 121° (ESE) 1,957 4.7 -11.4°
Maximum altitude 16:48:04 26° 65° (ENE) 1,215 3.5 -12.0°
Drops below altitude 10° 16:51:36 10° 9° (N) 1,968 4.9 -12.5°
Sets 16:54:03 0° 357° (N) 2,876 5.9 -12.9°
